Weather History for Hondo, TX

Change the Weather History Date:

Tuesday, June 18, 2013

  Actual Average Record
Temperature  
Mean Temperature 84 °F -  
Max Temperature 93 °F 90 °F 107 °F (2011)
Min Temperature 75 °F 70 °F 66 °F (2003)
Cooling Degree Days 19    
Growing Degree Days 34 (Base 50)    
Moisture  
Dew Point 72 °F    
Average Humidity 70    
Maximum Humidity 94    
Minimum Humidity 47    
Precipitation  
Precipitation 0.00 in - - ()
Sea Level Pressure  
Sea Level Pressure 29.95 in    
Wind  
Wind Speed 7 mph (ESE)    
Max Wind Speed 13 mph    
Max Gust Speed -    
Visibility 10 miles    
Events      
Averages and records for this station are not official NWS values.
T = Trace of Precipitation, MM = Missing Value Source: NWS Daily Summary

Daily Weather History Graph

Daily Weather History Graph

Search for Another Location

Airport:

Trip Planner

Search our weather history database for the weather conditions in past years. The results will help you decide how hot, cold, wet, or windy it might be!

Date:

Astronomy

Jun. 18, 2013 Rise Set
Actual Time 6:37 AM CDT 8:38 PM CDT
Civil Twilight 6:09 AM CDT 9:05 PM CDT
Nautical Twilight 5:36 AM CDT 9:38 PM CDT
Astronomical Twilight 5:01 AM CDT 10:14 PM CDT
Moon 3:41 PM CDT 2:27 AM CDT
Length of Visible Light 14h 55m
Length of Day
14h 01m
Waxing Gibbous, 71% of the Moon is Illuminated
Jun 18
Waxing Gibbous
Jun 23
Full
Jun 29
Last Quarter
Jul 8
New
Jul 15
First Quarter

Hourly Weather History & Observations

Time (CDT) Temp. Heat Index Dew Point Humidity Pressure Visibility Wind Dir Wind Speed Gust Speed Precip Events Conditions
12:51 AM 81.0 °F 85.2 °F 72.0 °F 74% 29.93 in 10.0 mi SE 9.2 mph - N/A   Clear
1:51 AM 80.1 °F 83.8 °F 72.0 °F 76% 29.94 in 10.0 mi SE 12.7 mph - N/A   Overcast
2:51 AM 79.0 °F - 72.0 °F 79% 29.93 in 10.0 mi SE 8.1 mph - N/A   Overcast
3:51 AM 77.0 °F - 72.0 °F 84% 29.93 in 10.0 mi ESE 5.8 mph - N/A   Clear
4:51 AM 75.0 °F - 72.0 °F 90% 29.94 in 10.0 mi ENE 4.6 mph - N/A   Partly Cloudy
5:51 AM 75.0 °F - 72.0 °F 90% 29.94 in 9.0 mi NE 3.5 mph - N/A   Scattered Clouds
6:00 AM 75.2 °F - 71.6 °F 89% 29.99 in 8.0 mi NE 6.9 mph - N/A   Mostly Cloudy
6:37 AM 75.2 °F - 73.4 °F 94% 30.01 in 10.0 mi ENE 4.6 mph - N/A   Overcast
6:51 AM 75.9 °F - 72.0 °F 87% 29.95 in 10.0 mi ENE 4.6 mph - N/A   Mostly Cloudy
7:51 AM 77.0 °F - 73.0 °F 88% 29.95 in 9.0 mi SE 6.9 mph - N/A   Clear
8:51 AM 79.0 °F - 72.0 °F 79% 29.98 in 10.0 mi ESE 4.6 mph - N/A   Scattered Clouds
9:00 AM 80.6 °F 84.6 °F 71.6 °F 74% 30.02 in 10.0 mi SE 3.5 mph - N/A   Mostly Cloudy
9:29 AM 80.6 °F 84.6 °F 71.6 °F 74% 30.02 in 10.0 mi SE 5.8 mph - N/A   Scattered Clouds
9:41 AM 80.6 °F 84.6 °F 71.6 °F 74% 30.02 in 10.0 mi Variable 4.6 mph - N/A   Mostly Cloudy
9:51 AM 81.0 °F 84.9 °F 71.1 °F 72% 29.98 in 10.0 mi Variable 4.6 mph - N/A   Scattered Clouds
9:59 AM 82.4 °F 87.2 °F 71.6 °F 70% 30.02 in 10.0 mi SE 6.9 mph - N/A   Mostly Cloudy
10:09 AM 82.4 °F 86.3 °F 69.8 °F 66% 30.02 in 10.0 mi SSE 6.9 mph - N/A   Partly Cloudy
10:51 AM 82.0 °F 85.9 °F 70.0 °F 67% 29.98 in 10.0 mi SSE 3.5 mph - N/A   Partly Cloudy
11:10 AM 84.2 °F 89.6 °F 71.6 °F 66% 30.03 in 10.0 mi Calm Calm - N/A   Mostly Cloudy
11:31 AM 82.4 °F 86.3 °F 69.8 °F 66% 30.03 in 10.0 mi SSE 4.6 mph - N/A   Mostly Cloudy
11:51 AM 86.0 °F 90.7 °F 70.0 °F 59% 29.98 in 10.0 mi East 6.9 mph - N/A   Mostly Cloudy
12:51 PM 87.1 °F 92.0 °F 70.0 °F 57% 29.96 in 10.0 mi Variable 3.5 mph - N/A   Clear
1:51 PM 89.1 °F 96.0 °F 72.0 °F 57% 29.95 in 10.0 mi South 10.4 mph - N/A   Clear
2:51 PM 90.0 °F 96.9 °F 72.0 °F 55% 29.93 in 10.0 mi SE 8.1 mph - N/A   Clear
3:51 PM 91.0 °F 99.3 °F 73.0 °F 55% 29.91 in 10.0 mi SSE 10.4 mph - N/A   Clear
4:51 PM 91.9 °F 99.5 °F 72.0 °F 52% 29.89 in 10.0 mi SE 5.8 mph - N/A   Clear
5:51 PM 93.0 °F 100.1 °F 71.1 °F 49% 29.87 in 10.0 mi East 4.6 mph - N/A   Clear
6:51 PM 91.9 °F 96.9 °F 69.1 °F 47% 29.86 in 10.0 mi SE 5.8 mph - N/A   Clear
7:51 PM 88.0 °F 94.7 °F 72.0 °F 59% 29.86 in 10.0 mi SE 3.5 mph - N/A   Clear
8:51 PM 84.0 °F 89.6 °F 72.0 °F 67% 29.86 in 10.0 mi ENE 5.8 mph - N/A   Clear
9:51 PM 84.0 °F 89.0 °F 71.1 °F 65% 29.87 in 10.0 mi East 5.8 mph - N/A   Clear
10:51 PM 81.0 °F 84.9 °F 71.1 °F 72% 29.89 in 10.0 mi East 4.6 mph - N/A   Clear
11:51 PM 82.0 °F 86.7 °F 72.0 °F 71% 29.91 in 10.0 mi SE 9.2 mph - N/A   Clear